SLM421 SYCJ-SMJP

Flight info

Callsign SLM421
Flight time 0h 40m
Altitude 23000
Route SISEX G443 GEBON
Aircraft B738/M-SDE2E3FGHIRWXY/LB1

Departure

Time 2026-04-27 22:57
Airport Cheddi Jagan International Airport (SYCJ)

Arrival

Time 2026-04-27 23:37
Airport Johan Adolf Pengel International Airport (SMJP)
Time Latitude Longitude Altitude Speed Heading
2026-04-27 22:35 6.50383 -58.25178 100 ft 0 kts 315°
2026-04-27 22:47 6.50374 -58.25169 97 ft 4 kts 327°
2026-04-27 22:47 6.50350 -58.25161 96 ft 4 kts 13°
2026-04-27 22:48 6.50333 -58.25171 97 ft 1 kts 54°
2026-04-27 22:48 6.50331 -58.25174 98 ft 0 kts 54°
2026-04-27 22:50 6.50334 -58.25170 97 ft 2 kts 54°
2026-04-27 22:50 6.50347 -58.25152 98 ft 4 kts 54°
2026-04-27 22:50 6.50346 -58.25123 98 ft 4 kts 115°
2026-04-27 22:51 6.50326 -58.25100 99 ft 5 kts 133°
2026-04-27 22:51 6.50304 -58.25075 100 ft 5 kts 131°
2026-04-27 22:51 6.50280 -58.25048 101 ft 5 kts 133°
2026-04-27 22:51 6.50245 -58.25038 101 ft 6 kts 187°
2026-04-27 22:52 6.50204 -58.25066 101 ft 9 kts 225°
2026-04-27 22:52 6.50149 -58.25120 100 ft 13 kts 224°
2026-04-27 22:52 6.50083 -58.25185 102 ft 14 kts 225°
2026-04-27 22:52 6.50016 -58.25252 103 ft 14 kts 225°
2026-04-27 22:53 6.49938 -58.25328 103 ft 17 kts 225°
2026-04-27 22:53 6.49854 -58.25413 105 ft 17 kts 225°
2026-04-27 22:53 6.49765 -58.25501 106 ft 20 kts 225°
2026-04-27 22:53 6.49652 -58.25610 105 ft 25 kts 223°
2026-04-27 22:54 6.49532 -58.25733 104 ft 24 kts 223°
2026-04-27 22:54 6.49414 -58.25842 101 ft 23 kts 224°
2026-04-27 22:54 6.49304 -58.25953 102 ft 22 kts 226°
2026-04-27 22:54 6.49199 -58.26061 102 ft 21 kts 225°
2026-04-27 22:55 6.49096 -58.26166 105 ft 21 kts 224°
2026-04-27 22:55 6.48993 -58.26265 108 ft 20 kts 224°
2026-04-27 22:55 6.48885 -58.26347 108 ft 20 kts 193°
2026-04-27 22:55 6.48768 -58.26403 110 ft 19 kts 228°
2026-04-27 22:56 6.48818 -58.26443 110 ft 13 kts 41°
2026-04-27 22:56 6.48920 -58.26338 108 ft 48 kts 46°
2026-04-27 22:56 6.49358 -58.25904 102 ft 128 kts 44°
2026-04-27 22:56 6.50141 -58.25152 356 ft 171 kts 46°
2026-04-27 22:57 6.50964 -58.24310 1328 ft 173 kts 58°
2026-04-27 22:57 6.51203 -58.23096 2096 ft 188 kts 94°
2026-04-27 22:57 6.50803 -58.21768 2671 ft 208 kts 112°
2026-04-27 22:57 6.50148 -58.20426 3320 ft 219 kts 119°
2026-04-27 22:58 6.49267 -58.19107 3863 ft 241 kts 119°
2026-04-27 22:58 6.48485 -58.17546 4507 ft 255 kts 113°
2026-04-27 22:58 6.47770 -58.15894 5429 ft 259 kts 111°
2026-04-27 22:58 6.47079 -58.14200 6387 ft 262 kts 110°
2026-04-27 22:59 6.46395 -58.12482 7209 ft 266 kts 110°
2026-04-27 22:59 6.45712 -58.10742 8114 ft 269 kts 110°
2026-04-27 22:59 6.45020 -58.08964 8857 ft 278 kts 110°
2026-04-27 22:59 6.44315 -58.07140 9741 ft 281 kts 110°
2026-04-27 23:00 6.42829 -58.03282 10574 ft 319 kts 110°
2026-04-27 23:00 6.42011 -58.01152 11049 ft 332 kts 110°
2026-04-27 23:00 6.41172 -57.98969 11745 ft 336 kts 110°
2026-04-27 23:01 6.40337 -57.96793 12535 ft 339 kts 110°
2026-04-27 23:01 6.39480 -57.94561 13245 ft 345 kts 110°
2026-04-27 23:01 6.38612 -57.92300 13976 ft 349 kts 109°
2026-04-27 23:01 6.37739 -57.90028 14798 ft 348 kts 110°
2026-04-27 23:02 6.36859 -57.87733 15447 ft 355 kts 110°
2026-04-27 23:02 6.35963 -57.85399 16133 ft 359 kts 110°
2026-04-27 23:02 6.35060 -57.83046 16879 ft 362 kts 110°
2026-04-27 23:02 6.34150 -57.80675 17587 ft 365 kts 110°
2026-04-27 23:03 6.33230 -57.78280 18313 ft 367 kts 110°
2026-04-27 23:03 6.32367 -57.75901 19070 ft 365 kts 108°
2026-04-27 23:03 6.31558 -57.73500 19920 ft 360 kts 108°
2026-04-27 23:03 6.30770 -57.71109 20552 ft 362 kts 107°
2026-04-27 23:04 6.29982 -57.68714 20872 ft 359 kts 107°
2026-04-27 23:04 6.29194 -57.66330 20922 ft 357 kts 108°
2026-04-27 23:04 6.28407 -57.63960 20934 ft 358 kts 108°
2026-04-27 23:04 6.27610 -57.61569 20946 ft 360 kts 108°
2026-04-27 23:05 6.26811 -57.59181 20949 ft 361 kts 108°
2026-04-27 23:05 6.26008 -57.56787 20946 ft 362 kts 108°
2026-04-27 23:05 6.25214 -57.54421 20946 ft 362 kts 108°
2026-04-27 23:05 6.24409 -57.52023 20944 ft 362 kts 108°
2026-04-27 23:06 6.23604 -57.49628 20942 ft 361 kts 108°
2026-04-27 23:06 6.22798 -57.47232 20942 ft 361 kts 108°
2026-04-27 23:06 6.21994 -57.44840 20943 ft 360 kts 108°
2026-04-27 23:06 6.21194 -57.42459 20945 ft 359 kts 108°
2026-04-27 23:07 6.20394 -57.40082 20943 ft 359 kts 108°
2026-04-27 23:07 6.19596 -57.37708 20945 ft 358 kts 108°
2026-04-27 23:07 6.18798 -57.35335 20946 ft 358 kts 108°
2026-04-27 23:07 6.18001 -57.32965 20953 ft 358 kts 108°
2026-04-27 23:08 6.17203 -57.30595 20945 ft 358 kts 108°
2026-04-27 23:08 6.16405 -57.28223 20950 ft 358 kts 108°
2026-04-27 23:08 6.15609 -57.25857 20957 ft 358 kts 108°
2026-04-27 23:08 6.14822 -57.23520 20953 ft 358 kts 108°
2026-04-27 23:09 6.14023 -57.21147 20952 ft 358 kts 108°
2026-04-27 23:09 6.13224 -57.18774 20955 ft 359 kts 108°
2026-04-27 23:09 6.12424 -57.16398 20953 ft 359 kts 108°
2026-04-27 23:09 6.11621 -57.14013 20955 ft 359 kts 108°
2026-04-27 23:10 6.10822 -57.11642 20954 ft 359 kts 108°
2026-04-27 23:10 6.10021 -57.09264 20955 ft 359 kts 108°
2026-04-27 23:10 6.09221 -57.06890 20957 ft 359 kts 108°
2026-04-27 23:10 6.08423 -57.04521 20956 ft 359 kts 108°
2026-04-27 23:11 6.07619 -57.02135 20961 ft 358 kts 108°
2026-04-27 23:11 6.06817 -56.99761 20959 ft 358 kts 108°
2026-04-27 23:11 6.05972 -56.97407 20955 ft 358 kts 109°
2026-04-27 23:11 6.05101 -56.95096 20957 ft 358 kts 110°
2026-04-27 23:12 6.04208 -56.92758 20950 ft 358 kts 110°
2026-04-27 23:12 6.03312 -56.90418 20951 ft 358 kts 110°
2026-04-27 23:12 6.02421 -56.88084 20953 ft 358 kts 110°
2026-04-27 23:12 6.01534 -56.85748 20956 ft 358 kts 110°
2026-04-27 23:13 6.00648 -56.83412 20958 ft 358 kts 110°
2026-04-27 23:13 5.99763 -56.81073 20956 ft 358 kts 110°
2026-04-27 23:13 5.98879 -56.78733 20956 ft 358 kts 109°
2026-04-27 23:13 5.97995 -56.76392 20954 ft 358 kts 109°
2026-04-27 23:14 5.97113 -56.74056 20954 ft 358 kts 109°
2026-04-27 23:14 5.96229 -56.71715 20955 ft 358 kts 109°
2026-04-27 23:14 5.95347 -56.69378 20955 ft 358 kts 109°
2026-04-27 23:14 5.94475 -56.67067 20955 ft 358 kts 109°
2026-04-27 23:15 5.93592 -56.64730 20957 ft 358 kts 109°
2026-04-27 23:15 5.92709 -56.62392 20958 ft 358 kts 109°
2026-04-27 23:15 5.91828 -56.60058 20961 ft 358 kts 109°
2026-04-27 23:15 5.90946 -56.57723 20958 ft 358 kts 109°
2026-04-27 23:16 5.90065 -56.55391 20952 ft 355 kts 109°
2026-04-27 23:16 5.89479 -56.53842 20941 ft 347 kts 109°
2026-04-27 23:16 5.88647 -56.51643 20815 ft 338 kts 109°
2026-04-27 23:16 5.87820 -56.49455 20612 ft 332 kts 109°
2026-04-27 23:17 5.87001 -56.47289 20278 ft 330 kts 109°
2026-04-27 23:17 5.86193 -56.45152 19958 ft 326 kts 109°
2026-04-27 23:17 5.85389 -56.43025 19626 ft 324 kts 109°
2026-04-27 23:17 5.84594 -56.40921 19265 ft 322 kts 109°
2026-04-27 23:18 5.83798 -56.38817 18939 ft 320 kts 109°
2026-04-27 23:18 5.83008 -56.36727 18583 ft 319 kts 109°
2026-04-27 23:18 5.82222 -56.34648 18242 ft 318 kts 109°
2026-04-27 23:18 5.81439 -56.32578 17863 ft 317 kts 109°
2026-04-27 23:19 5.80669 -56.30544 17507 ft 314 kts 109°
2026-04-27 23:19 5.79895 -56.28499 17161 ft 312 kts 108°
2026-04-27 23:19 5.79126 -56.26465 16823 ft 310 kts 108°
2026-04-27 23:19 5.78363 -56.24451 16492 ft 307 kts 108°
2026-04-27 23:20 5.77606 -56.22451 16166 ft 305 kts 108°
2026-04-27 23:20 5.76851 -56.20455 15841 ft 304 kts 108°
2026-04-27 23:20 5.76104 -56.18484 15516 ft 302 kts 108°
2026-04-27 23:20 5.75360 -56.16518 15201 ft 300 kts 108°
2026-04-27 23:21 5.74627 -56.14584 14887 ft 299 kts 108°
2026-04-27 23:21 5.73890 -56.12637 14557 ft 298 kts 108°
2026-04-27 23:21 5.73154 -56.10692 14241 ft 297 kts 108°
2026-04-27 23:21 5.72422 -56.08760 13913 ft 296 kts 108°
2026-04-27 23:22 5.71691 -56.06832 13577 ft 295 kts 108°
2026-04-27 23:22 5.70963 -56.04911 13240 ft 293 kts 108°
2026-04-27 23:22 5.70240 -56.03002 12910 ft 291 kts 108°
2026-04-27 23:22 5.69521 -56.01105 12585 ft 289 kts 108°
2026-04-27 23:23 5.68816 -55.99246 12280 ft 287 kts 108°
2026-04-27 23:23 5.68108 -55.97379 11975 ft 285 kts 108°
2026-04-27 23:23 5.67406 -55.95525 11669 ft 283 kts 108°
2026-04-27 23:23 5.66707 -55.93682 11362 ft 281 kts 108°
2026-04-27 23:24 5.66012 -55.91849 11063 ft 280 kts 108°
2026-04-27 23:24 5.65322 -55.90030 10762 ft 278 kts 108°
2026-04-27 23:24 5.64635 -55.88219 10466 ft 277 kts 109°
2026-04-27 23:24 5.63953 -55.86420 10225 ft 273 kts 109°
2026-04-27 23:25 5.63283 -55.84657 10082 ft 266 kts 109°
2026-04-27 23:25 5.62643 -55.82970 9923 ft 260 kts 109°
2026-04-27 23:25 5.61999 -55.81274 9641 ft 259 kts 109°
2026-04-27 23:25 5.61362 -55.79594 9366 ft 257 kts 109°
2026-04-27 23:26 5.60725 -55.77915 9086 ft 255 kts 109°
2026-04-27 23:26 5.60093 -55.76250 8817 ft 254 kts 109°
2026-04-27 23:26 5.59468 -55.74601 8552 ft 252 kts 109°
2026-04-27 23:26 5.58844 -55.72958 8291 ft 251 kts 109°
2026-04-27 23:27 5.58226 -55.71329 8034 ft 249 kts 109°
2026-04-27 23:27 5.57611 -55.69709 7769 ft 248 kts 109°
2026-04-27 23:27 5.56999 -55.68098 7504 ft 246 kts 109°
2026-04-27 23:27 5.56392 -55.66499 7249 ft 245 kts 109°
2026-04-27 23:28 5.55792 -55.64918 6998 ft 244 kts 109°
2026-04-27 23:28 5.55181 -55.63311 6736 ft 243 kts 109°
2026-04-27 23:28 5.54580 -55.61729 6479 ft 242 kts 109°
2026-04-27 23:28 5.53991 -55.60177 6218 ft 241 kts 109°
2026-04-27 23:29 5.53394 -55.58607 5949 ft 240 kts 109°
2026-04-27 23:29 5.52801 -55.57046 5691 ft 239 kts 109°
2026-04-27 23:29 5.52210 -55.55491 5427 ft 238 kts 109°
2026-04-27 23:29 5.51623 -55.53944 5175 ft 237 kts 109°
2026-04-27 23:30 5.51037 -55.52405 4959 ft 234 kts 109°
2026-04-27 23:30 5.50457 -55.50879 4719 ft 233 kts 109°
2026-04-27 23:30 5.49882 -55.49365 4473 ft 231 kts 109°
2026-04-27 23:30 5.49310 -55.47861 4224 ft 230 kts 109°
2026-04-27 23:31 5.48746 -55.46377 4100 ft 225 kts 109°
2026-04-27 23:31 5.48195 -55.44928 4000 ft 226 kts 108°
2026-04-27 23:31 5.47630 -55.43440 3898 ft 230 kts 108°
2026-04-27 23:31 5.47067 -55.41960 3792 ft 224 kts 108°
2026-04-27 23:32 5.46521 -55.40526 3689 ft 216 kts 108°
2026-04-27 23:32 5.45989 -55.39127 3510 ft 212 kts 108°
2026-04-27 23:32 5.45471 -55.37769 3311 ft 204 kts 108°
2026-04-27 23:32 5.45208 -55.36441 3078 ft 193 kts 88°
2026-04-27 23:33 5.45230 -55.35122 2855 ft 186 kts 89°
2026-04-27 23:33 5.45213 -55.33843 2641 ft 180 kts 89°
2026-04-27 23:33 5.45209 -55.32625 2493 ft 169 kts 88°
2026-04-27 23:33 5.45211 -55.31464 2278 ft 163 kts 88°
2026-04-27 23:34 5.45216 -55.30378 2053 ft 151 kts 87°
2026-04-27 23:34 5.45221 -55.29344 1856 ft 145 kts 87°
2026-04-27 23:34 5.45228 -55.28348 1680 ft 141 kts 87°
2026-04-27 23:34 5.45234 -55.27361 1482 ft 143 kts 86°
2026-04-27 23:35 5.45246 -55.26365 1274 ft 145 kts 85°
2026-04-27 23:35 5.45255 -55.25337 1045 ft 146 kts 88°
2026-04-27 23:35 5.45252 -55.24323 849 ft 145 kts 87°
2026-04-27 23:35 5.45259 -55.23320 668 ft 145 kts 88°
2026-04-27 23:36 5.45264 -55.22305 519 ft 146 kts 87°
2026-04-27 23:36 5.45275 -55.21281 316 ft 147 kts 88°
2026-04-27 23:36 5.45277 -55.20264 96 ft 143 kts 88°
2026-04-27 23:36 5.45281 -55.19340 63 ft 117 kts 89°
2026-04-27 23:37 5.45288 -55.18641 55 ft 82 kts 89°
2026-04-27 23:37 5.45289 -55.18186 58 ft 54 kts 89°
2026-04-27 23:37 5.45293 -55.17840 65 ft 44 kts 89°
2026-04-27 23:37 5.45295 -55.17590 64 ft 27 kts 90°
2026-04-27 23:38 5.45349 -55.17449 60 ft 21 kts 44°
2026-04-27 23:38 5.45449 -55.17341 61 ft 21 kts 59°
2026-04-27 23:38 5.45422 -55.17216 61 ft 20 kts 161°
2026-04-27 23:38 5.45299 -55.17257 59 ft 20 kts 255°
2026-04-27 23:39 5.45297 -55.17397 60 ft 20 kts 269°
2026-04-27 23:39 5.47604 -55.43372 3891 ft 198 kts 108°
2026-04-27 23:39 5.47385 -55.42795 3850 ft 228 kts 108°
2026-04-27 23:39 5.45215 -55.34041 2670 ft 181 kts 89°
2026-04-27 23:40 5.45209 -55.32813 2526 ft 170 kts 88°
2026-04-27 23:40 5.45210 -55.31666 2319 ft 164 kts 88°
2026-04-27 23:40 5.45215 -55.30553 2076 ft 153 kts 88°
2026-04-27 23:40 5.45220 -55.29512 1881 ft 146 kts 87°
2026-04-27 23:41 5.45227 -55.28509 1693 ft 142 kts 87°
2026-04-27 23:41 5.45232 -55.27523 1507 ft 143 kts 85°
2026-04-27 23:41 5.45243 -55.26532 1309 ft 144 kts 85°
2026-04-27 23:41 5.45257 -55.25505 1075 ft 146 kts 87°
2026-04-27 23:42 5.45251 -55.24488 877 ft 145 kts 87°
2026-04-27 23:42 5.45258 -55.23474 690 ft 146 kts 88°
2026-04-27 23:42 5.45266 -55.22471 544 ft 146 kts 87°
2026-04-27 23:42 5.45272 -55.21449 349 ft 147 kts 85°
2026-04-27 23:43 5.45275 -55.20427 133 ft 144 kts 87°
2026-04-27 23:43 5.45283 -55.19478 63 ft 123 kts 89°
2026-04-27 23:43 5.45287 -55.18742 50 ft 88 kts 90°
2026-04-27 23:43 5.45289 -55.18246 58 ft 55 kts 90°
2026-04-27 23:44 5.45292 -55.17891 65 ft 46 kts 89°
2026-04-27 23:44 5.45295 -55.17621 64 ft 26 kts 90°
2026-04-27 23:44 5.45332 -55.17465 63 ft 22 kts 45°
2026-04-27 23:44 5.45436 -55.17359 58 ft 21 kts 46°
2026-04-27 23:45 5.45442 -55.17227 60 ft 20 kts 136°
2026-04-27 23:45 5.45309 -55.17237 59 ft 20 kts 228°
2026-04-27 23:45 5.45297 -55.17374 59 ft 20 kts 269°
2026-04-27 23:45 5.45296 -55.17511 64 ft 19 kts 270°
2026-04-27 23:46 5.45297 -55.17666 64 ft 26 kts 270°
2026-04-27 23:46 5.45296 -55.17876 65 ft 34 kts 269°
2026-04-27 23:46 5.45295 -55.18135 61 ft 41 kts 270°
2026-04-27 23:46 5.45293 -55.18436 57 ft 44 kts 269°
2026-04-27 23:47 5.45291 -55.18738 55 ft 42 kts 269°
2026-04-27 23:47 5.45287 -55.19022 56 ft 39 kts 269°
2026-04-27 23:47 5.45286 -55.19286 63 ft 36 kts 270°
2026-04-27 23:47 5.45283 -55.19530 61 ft 34 kts 268°
2026-04-27 23:48 5.45293 -55.19706 56 ft 14 kts 312°
2026-04-27 23:48 5.45382 -55.19731 64 ft 13 kts 358°
2026-04-27 23:48 5.45446 -55.19778 60 ft 13 kts 279°
2026-04-27 23:48 5.45523 -55.19813 61 ft 14 kts 358°
2026-04-27 23:49 5.45583 -55.19795 57 ft 7 kts 58°
2026-04-27 23:49 5.45586 -55.19761 58 ft 3 kts 91°
2026-04-27 23:49 5.45587 -55.19751 60 ft 0 kts 85°